Tracking 23757 objects as of 26-Oct-2021
HD Live streaming from Space Station
objects crossing your sky now

IRIDIUM 33 DEB

Track IRIDIUM 33 DEB now!
10-day predictions


NORAD ID: 34532
Int'l Code: 1997-051HZ
Perigee: 632.2 km
Apogee: 685.9 km
Inclination: 86.3 °
Period: 97.8 minutes
Semi major axis: 7030 km
RCS: 0.027 m2 (small)
Launch date: September 14, 1997
Source: United States (US)
Launch site: TYURATAM MISSILE AND SPACE COMPLEX (TTMTR)

Note: This is SATELLITE DEBRIS
aabbcc
Your satellite tracking list
Your tracking list is empty




NASA's NSSDC Master Catalog

Two Line Element Set (TLE):
1 34532U 97051HZ  21298.47301092  .00009592  00000-0  14768-2 0  9990
2 34532  86.3318 286.8293 0038222 180.3286 179.7913 14.72868553668030
Source of the keplerian elements: AFSPC